Regional Weather Roundup
Issued by NWS

Home | Current Version | Previous Version | Graphics & Text | Print | Product List | Glossary On
Versions: 1 2 3 4 5 6 7 8 9 10 11 12 13 14 15 16 17 18 19 20 21 22 23 24 25 26 27 28 29 30 31 32 33 34 35 36 37 38 39 40 41 42 43 44 45 46 47 48 49 50
000
ASUS43 KMPX 050210
RWRMN
WEATHER ROUNDUP FOR MINNESOTA
NATIONAL WEATHER SERVICE TWIN CITIES/CHANHASSEN MN
800 PM CST SUN DEC 04 2016


NOTE: "FAIR" INDICATES FEW OR NO CLOUDS BELOW 12,000 FEET WITH NO
SIGNIFICANT WEATHER AND/OR OBSTRUCTIONS TO VISIBILITY. N/A MEANS
CURRENT SKY AND/OR WEATHER CONDITIONS ARE NOT AVAILABLE.

MNZ060>063-068>070-050300-
   Twin Cities Metro

CITY           SKY/WX    TMP DP  RH WIND       PRES   REMARKS
TWIN CITIES    CLOUDY    36  30  79 W13G25    29.76R
ST PAUL        CLOUDY    37  33  85 W13G22    29.77R
CRYSTAL        CLOUDY    35  29  78 W7        29.75R WCI  29
BLAINE         CLOUDY    37  34  87 W12       29.74R
LAKEVILLE      PTCLDY    34  34 100 W7        29.77R WCI  28
EDEN PRAIRIE   MOCLDY    37  31  78 W7        29.76R
SOUTH ST PAUL  CLOUDY    37  32  82 W12G18    29.76R
LAKE ELMO      CLOUDY    36  34  93 W10       29.76R
$$
MNZ001>005-007-008-013>017-022>024-027-028-050300-
   Northwest Minnesota

CITY           SKY/WX    TMP DP  RH WIND       PRES   REMARKS
BEMIDJI        CLOUDY    29  28  96 W13       29.62S WCI  19
HALLOCK        CLOUDY    30  30 100 W10       29.61S WCI  21
ROSEAU         LGT SNOW  30  27  86 SW7       29.59S WCI  23
WARROAD        CLOUDY    30  27  86 SW5       29.59S WCI  25
THIEF RVR FALL FLURRIES  29  27  92 W14       29.63S WCI  18
CROOKSTON      CLOUDY    30  28  93 W13       29.66S WCI  20
FOSSTON        CLOUDY    28  27  93 SW9       29.64F WCI  20
DETROIT LAKES  CLOUDY    32  28  86 W7        29.68S WCI  26
MOORHEAD       MOCLDY    30  27  86 SW5       29.70S WCI  25
PARK RAPIDS    CLOUDY    32  26  78 W13       29.64S WCI  22
$$
MNZ006-009>011-018-025>026-050300-
   North Central Minnesota

CITY           SKY/WX    TMP DP  RH WIND       PRES   REMARKS
BAUDETTE       CLOUDY    31  29  92 SW10      29.59R WCI  22
FLAG ISLAND    CLOUDY    30  30 100 SW9       29.57S FOG     WCI  22
INTL FALLS     LGT SNOW  30  28  92 SE6       29.60S VSB 1   WCI  24
WASKISH        CLOUDY    30  28  93 W9        29.61S WCI  22
BIG FORK       MIX PCPN  32  30  93 CALM      29.60F
LONGVILLE      MIX PCPN  30  28  93 SW7       29.63F WCI  23
GRAND RAPIDS   MIX PCPN  32  31  96 W8        29.63F FOG     WCI  25
CRANE LAKE     LGT SNOW  28  28 100 CALM      29.64F
ORR            LGT SNOW  28  27  93 CALM      29.59F
COOK           LGT SNOW  30  28  93 SE3       29.62F
$$
MNZ012-019>021-037-050300-
   Northeast Minnesota

CITY           SKY/WX    TMP DP  RH WIND       PRES   REMARKS
DULUTH         FRZ DRZL  32  31  96 SW8       29.63F FOG     WCI  25
ELY            LGT SNOW  28  28 100 CALM      29.62F
HIBBING        LGT SNOW  30  29  96 CALM      29.61F FOG
EVELETH        LGT SNOW  32  32  98 CALM      29.63F
DULUTH HARBOR  CLOUDY    34  32  93 S3        29.68S
TWO HARBORS    DRIZZLE   36  30  80 CALM      29.64F
SILVER BAY     LGT SNOW  34  34 100 CALM      29.64F
GRAND MARAIS     N/A     37  34  89 SW13      29.68F
G MARAIS ARPRT LGT SNOW  28  25  86 S5        29.64F WCI  23
$$
MNZ029>031-032-039>041-046>048-054>057-064-050300-
   West Central Minnesota

CITY           SKY/WX    TMP DP  RH WIND       PRES   REMARKS
FERGUS FALLS   CLOUDY    32  32 100 SW6       29.74S WCI  26
WHEATON        CLEAR    N/A N/A N/A SW5       29.74
MORRIS         CLEAR     32  30  93 SW8       29.72S WCI  25
ALEXANDRIA     CLOUDY    33  31  92 SW9       29.71S WCI  25
ELBOW LAKE     MOCLDY    32  31  98 CALM      29.71F
WADENA         MOCLDY    30  28  93 SW12      29.67S WCI  21
GLENWOOD       MOCLDY    34  30  86 W9        29.71S WCI  26
APPLETON       CLEAR     34  28  80 SW8       29.74S WCI  27
BENSON         PTCLDY    30  28  93 W6        29.74S WCI  24
ORTONVILLE     CLEAR     30  27  86 CALM      29.74S
MADISON        CLEAR     36  32  87 SW6       29.75S
WILLMAR        CLOUDY    36  32  87 W10       29.76S
$$
MNZ033>034-036-042>043-049>051-058-059-050300-
   Central Minnesota

CITY           SKY/WX    TMP DP  RH WIND       PRES   REMARKS
ST CLOUD       CLOUDY    34  31  88 W8        29.72S WCI  27
PAYNESVILLE    CLOUDY    34  34 100 SW7       29.74S WCI  28
AITKIN         CLOUDY    36  28  75 W7        29.64S
PINE RIVER     CLOUDY    30  28  93 SW6       29.69F WCI  24
BRAINERD       CLOUDY    32  28  85 W9        29.68S WCI  24
STAPLES        CLOUDY    30  28  93 SW8       29.67F WCI  23
LONG PRAIRIE   CLOUDY    32  30  93 S8        29.70S WCI  25
LITTLE FALLS   CLOUDY    34  30  86 W6        29.70S WCI  29
LITCHFIELD     CLOUDY    36  32  87 SW3       29.75S
BUFFALO        CLOUDY    35  31  87 SW3       29.76S
MAPLE LAKE     CLOUDY    35  33  92 SW5       29.75S WCI  31
$$
MNZ037-044-045-052-053-050300-
   East Central Minnesota

CITY           SKY/WX    TMP DP  RH WIND       PRES   REMARKS
PRINCETON      CLOUDY    36  34  93 SW6       29.73R
MORA           CLOUDY    34  32  93 W9        29.72R WCI  26
CAMBRIDGE      CLOUDY    36  34  93 SW6       29.71S
RUSH CITY      CLOUDY    34  32  93 W7        29.71S WCI  28
MOOSE LAKE     CLOUDY    32  32 100 SW5       29.65S FOG     WCI  27
HINCKLEY       CLOUDY    34  32  93 SW8       29.69S WCI  27
CLOQUET        LGT SNOW  32  30  93 S5        29.64F WCI  27
MCGREGOR       CLOUDY    34  32  93 SW6       29.65S WCI  29
$$
MNZ071>073-080-081-089-090-097-098-050300-
   Southwest Minnesota

CITY           SKY/WX    TMP DP  RH WIND       PRES   REMARKS
MONTEVIDEO     CLEAR     30  27  86 SW5       29.78R WCI  25
GRANITE FALLS  CLEAR     32  30  94 SW5       29.78S WCI  27
CANBY          CLEAR     36  31  83 SW10      29.76S
MARSHALL       CLEAR     35  31  85 SW13      29.77S WCI  26
REDWOOD FALLS  CLEAR     32  29  88 SW5       29.77S WCI  27
OLIVIA         CLEAR     32  30  93 SW3       29.76S
PIPESTONE      CLEAR     34  30  86 W5        29.77F WCI  30
WINDOM         CLEAR     34  30  86 CALM      29.79R
WORTHINGTON    CLEAR     35  31  85 SW10      29.79S WCI  27
JACKSON        PTCLDY    32  30  93 SW8       29.80S WCI  25
TRACY          CLEAR     35  32  89 SW12      29.77S WCI  27
SLAYTON        CLEAR     34  31  90 W12       29.78F WCI  25
$$
MNZ065>067-074>077-082>085-091>093-050300-
   South Central Minnesota

CITY           SKY/WX    TMP DP  RH WIND       PRES   REMARKS
MANKATO        MOCLDY    36  32  85 W6        29.79S
NEW ULM        CLEAR     32  30  93 W6        29.78S WCI  26
ST JAMES       CLEAR     34  30  86 S3        29.80S
FAIRMONT       CLEAR     35  31  85 SW9       29.81R WCI  28
GLENCOE        CLOUDY    36  34  91 W10G16    29.76S
FARIBAULT      CLEAR     36  34  93 SW7       29.78R
OWATONNA       CLEAR     34  32  93 SW9       29.78S WCI  26
WASECA         MOCLDY    32  32 100 SW7       29.79S FOG     WCI  26
ALBERT LEA     CLEAR     37  37 100 SW12      29.79F FOG
$$
MNZ078>079-086>088-094>096-050300-
   Southeast Minnesota

CITY           SKY/WX    TMP DP  RH WIND       PRES   REMARKS
ROCHESTER      CLOUDY    34  33  96 SW14      29.78F WCI  25
RED WING       CLOUDY    37  34  87 W6        29.76S
STANTON        CLEAR     35  32  88 SW6       29.76R WCI  30
DODGE CENTER   CLOUDY    34  34 100 SW14      29.78R FOG     WCI  24
WINONA         CLOUDY    36  32  87 SW9       29.80S
PRESTON        CLOUDY    32  30  94 SW10      29.80S WCI  24
$$
ABBREVIATIONS USED IN REMARKS
   TC - TEMPERATURES IN CELSIUS
  WCI - WIND CHILL INDEX
   HX - HEAT INDEX
  VSB - VISIBILITY
$$




USA.gov is the U.S. government's official web portal to all federal, state and local government web resources and services.